Time,TemperatureF,DewpointF,PressureIn,WindDirection,WindDirectionDegrees,WindSpeedMPH,WindSpeedGustMPH,Humidity,HourlyPrecipIn,Conditions,Clouds,dailyrainin,SoftwareType,DateUTC
2013-03-03 00:01:00,5.0,1.0,30.10,West,267,0.0,0.0,82,0.00,,,0.00,,2013-03-03 09:01:00,
2013-03-03 00:11:00,5.0,1.0,30.10,West,267,0.0,0.0,82,0.00,,,0.00,,2013-03-03 09:11:00,
2013-03-03 00:21:00,4.0,-1.0,30.10,West,267,0.0,0.0,79,0.00,,,0.00,,2013-03-03 09:21:00,
2013-03-03 00:32:00,4.0,-1.0,30.10,West,267,0.0,0.0,79,0.00,,,0.00,,2013-03-03 09:32:00,
2013-03-03 00:41:00,4.0,-1.0,30.10,West,267,0.0,0.0,79,0.00,,,0.00,,2013-03-03 09:41:00,
2013-03-03 00:51:00,4.0,-1.0,30.11,West,267,0.0,0.0,81,0.00,,,0.00,,2013-03-03 09:51:00,
2013-03-03 01:01:00,4.0,-1.0,30.11,West,267,0.0,0.0,81,0.00,,,0.00,,2013-03-03 10:01:00,
2013-03-03 01:11:00,4.0,-1.0,30.11,West,267,0.0,0.0,81,0.00,,,0.00,,2013-03-03 10:11:00,
2013-03-03 01:21:00,4.0,-1.0,30.11,West,267,0.0,0.0,81,0.00,,,0.00,,2013-03-03 10:21:00,
2013-03-03 01:32:00,4.0,-1.0,30.11,West,267,0.0,0.0,81,0.00,,,0.00,,2013-03-03 10:32:00,
2013-03-03 01:42:00,4.0,-1.0,30.11,West,267,0.0,0.0,81,0.00,,,0.00,,2013-03-03 10:42:00,
2013-03-03 01:51:00,4.0,-1.0,30.12,West,267,0.0,0.0,81,0.00,,,0.00,,2013-03-03 10:51:00,
2013-03-03 02:01:00,4.0,-1.0,30.12,West,267,0.0,0.0,81,0.00,,,0.00,,2013-03-03 11:01:00,
2013-03-03 02:11:00,4.0,-1.0,30.12,West,267,0.0,0.0,81,0.00,,,0.00,,2013-03-03 11:11:00,
2013-03-03 02:21:00,4.0,0.0,30.12,West,267,0.0,0.0,83,0.00,,,0.00,,2013-03-03 11:21:00,
2013-03-03 02:31:00,4.0,0.0,30.12,West,267,0.0,0.0,83,0.00,,,0.00,,2013-03-03 11:31:00,
2013-03-03 02:42:00,4.0,0.0,30.12,West,267,0.0,0.0,83,0.00,,,0.00,,2013-03-03 11:42:00,
2013-03-03 02:52:00,4.0,-1.0,30.13,West,267,0.0,0.0,80,0.00,,,0.00,,2013-03-03 11:52:00,
2013-03-03 03:01:00,4.0,-1.0,30.13,West,267,0.0,0.0,80,0.00,,,0.00,,2013-03-03 12:01:00,
2013-03-03 03:11:00,4.0,-1.0,30.13,West,267,0.0,0.0,80,0.00,,,0.00,,2013-03-03 12:11:00,
2013-03-03 03:21:00,3.0,-2.0,30.14,West,267,0.0,0.0,79,0.00,,,0.00,,2013-03-03 12:21:00,
2013-03-03 03:32:00,3.0,-2.0,30.14,West,267,0.0,0.0,79,0.00,,,0.00,,2013-03-03 12:32:00,
2013-03-03 03:42:00,3.0,-2.0,30.14,West,267,0.0,0.0,79,0.00,,,0.00,,2013-03-03 12:42:00,
2013-03-03 03:52:00,3.0,-2.0,30.15,West,267,0.0,0.0,80,0.00,,,0.00,,2013-03-03 12:52:00,
2013-03-03 04:01:00,3.0,-2.0,30.15,West,267,0.0,0.0,80,0.00,,,0.00,,2013-03-03 13:01:00,
2013-03-03 04:11:00,3.0,-2.0,30.15,West,267,0.0,0.0,80,0.00,,,0.00,,2013-03-03 13:11:00,
2013-03-03 04:21:00,2.0,-3.0,30.16,West,267,0.0,0.0,78,0.00,,,0.00,,2013-03-03 13:21:00,
2013-03-03 04:32:00,2.0,-3.0,30.16,West,267,0.0,0.0,78,0.00,,,0.00,,2013-03-03 13:32:00,
2013-03-03 04:41:00,2.0,-3.0,30.16,West,267,0.0,0.0,78,0.00,,,0.00,,2013-03-03 13:41:00,
2013-03-03 04:51:00,2.0,-2.0,30.16,West,267,0.0,0.0,81,0.00,,,0.00,,2013-03-03 13:51:00,
2013-03-03 05:01:00,2.0,-2.0,30.16,West,267,0.0,0.0,81,0.00,,,0.00,,2013-03-03 14:01:00,
2013-03-03 05:11:00,2.0,-2.0,30.16,West,267,0.0,0.0,81,0.00,,,0.00,,2013-03-03 14:11:00,
2013-03-03 05:21:00,1.0,-4.0,30.17,West,267,0.0,0.0,78,0.00,,,0.00,,2013-03-03 14:21:00,
2013-03-03 05:31:00,1.0,-4.0,30.17,West,267,0.0,0.0,78,0.00,,,0.00,,2013-03-03 14:31:00,
2013-03-03 05:42:00,1.0,-4.0,30.17,West,267,0.0,0.0,78,0.00,,,0.00,,2013-03-03 14:42:00,
2013-03-03 05:52:00,0.0,-5.0,30.17,West,267,0.0,0.0,78,0.00,,,0.00,,2013-03-03 14:52:00,
2013-03-03 06:01:00,0.0,-5.0,30.17,West,267,0.0,0.0,78,0.00,,,0.00,,2013-03-03 15:01:00,
2013-03-03 06:11:00,0.0,-5.0,30.17,West,267,0.0,0.0,78,0.00,,,0.00,,2013-03-03 15:11:00,
2013-03-03 06:22:00,1.0,-4.0,30.18,West,267,0.0,0.0,78,0.00,,,0.00,,2013-03-03 15:22:00,
2013-03-03 06:32:00,1.0,-4.0,30.18,West,267,0.0,0.0,78,0.00,,,0.00,,2013-03-03 15:32:00,
2013-03-03 06:42:00,1.0,-4.0,30.18,West,267,0.0,0.0,78,0.00,,,0.00,,2013-03-03 15:42:00,
2013-03-03 06:51:00,3.0,-1.0,30.19,NW,325,0.0,2.0,84,0.00,,,0.00,,2013-03-03 15:51:00,
2013-03-03 07:12:00,3.0,-1.0,30.19,NW,325,0.0,2.0,84,0.00,,,0.00,,2013-03-03 16:12:00,
2013-03-03 07:21:00,3.0,-2.0,30.19,NW,325,0.0,0.0,80,0.00,,,0.00,,2013-03-03 16:21:00,
2013-03-03 07:51:00,1.0,-4.0,30.19,NW,325,0.0,0.0,78,0.00,,,0.00,,2013-03-03 16:51:00,
2013-03-03 08:01:00,1.0,-4.0,30.19,NW,325,0.0,0.0,78,0.00,,,0.00,,2013-03-03 17:01:00,
2013-03-03 08:11:00,-2.0,-7.0,30.20,NW,325,0.0,0.0,77,0.00,,,0.00,,2013-03-03 17:11:00,
2013-03-03 08:22:00,-2.0,-7.0,30.20,NW,325,0.0,0.0,77,0.00,,,0.00,,2013-03-03 17:22:00,
2013-03-03 08:32:00,-2.0,-7.0,30.20,NW,325,0.0,0.0,77,0.00,,,0.00,,2013-03-03 17:32:00,
2013-03-03 08:42:00,-2.0,-7.0,30.20,NW,325,0.0,0.0,77,0.00,,,0.00,,2013-03-03 17:42:00,
2013-03-03 08:52:00,-1.0,-6.0,30.22,NW,325,0.0,0.0,78,0.00,,,0.00,,2013-03-03 17:52:00,
2013-03-03 09:01:00,-1.0,-6.0,30.22,NW,325,0.0,0.0,78,0.00,,,0.00,,2013-03-03 18:01:00,
2013-03-03 09:11:00,-1.0,-6.0,30.22,NW,325,0.0,0.0,78,0.00,,,0.00,,2013-03-03 18:11:00,
2013-03-03 09:21:00,-1.0,-6.0,30.23,NW,325,0.0,0.0,78,0.00,,,0.00,,2013-03-03 18:21:00,
2013-03-03 09:41:00,-1.0,-6.0,30.23,NW,325,0.0,0.0,78,0.00,,,0.00,,2013-03-03 18:41:00,
2013-03-03 09:52:00,2.0,-2.0,30.23,NW,325,0.0,0.0,81,0.00,,,0.00,,2013-03-03 18:52:00,
2013-03-03 10:21:00,3.0,-1.0,30.24,NW,325,0.0,0.0,81,0.00,,,0.00,,2013-03-03 19:21:00,
2013-03-03 10:31:00,3.0,-1.0,30.24,NW,325,0.0,0.0,81,0.00,,,0.00,,2013-03-03 19:31:00,
2013-03-03 10:51:00,5.0,1.0,30.24,NW,325,0.0,0.0,84,0.00,,,0.00,,2013-03-03 19:51:00,
2013-03-03 11:01:00,5.0,1.0,30.24,NW,325,0.0,0.0,84,0.00,,,0.00,,2013-03-03 20:01:00,
2013-03-03 11:11:00,5.0,1.0,30.24,NW,325,0.0,0.0,84,0.00,,,0.00,,2013-03-03 20:11:00,
2013-03-03 11:21:00,8.0,4.0,30.24,SSW,205,0.0,1.0,82,0.00,,,0.00,,2013-03-03 20:21:00,
2013-03-03 11:32:00,8.0,4.0,30.24,SSW,205,0.0,1.0,82,0.00,,,0.00,,2013-03-03 20:32:00,
2013-03-03 11:42:00,8.0,4.0,30.24,SSW,205,0.0,1.0,82,0.00,,,0.00,,2013-03-03 20:42:00,
2013-03-03 11:52:00,10.0,6.0,30.25,WSW,258,1.0,2.0,83,0.00,,,0.00,,2013-03-03 20:52:00,
2013-03-03 12:01:00,10.0,6.0,30.25,WSW,258,1.0,2.0,83,0.00,,,0.00,,2013-03-03 21:01:00,
2013-03-03 12:11:00,10.0,6.0,30.25,WSW,258,1.0,2.0,83,0.00,,,0.00,,2013-03-03 21:11:00,
2013-03-03 12:21:00,12.0,7.0,30.25,West,263,0.0,2.0,79,0.00,,,0.00,,2013-03-03 21:21:00,
2013-03-03 12:32:00,12.0,7.0,30.25,West,263,0.0,2.0,79,0.00,,,0.00,,2013-03-03 21:32:00,
2013-03-03 12:41:00,12.0,7.0,30.25,West,263,0.0,2.0,79,0.00,,,0.00,,2013-03-03 21:41:00,
2013-03-03 12:52:00,16.0,10.0,30.25,West,263,0.0,1.0,76,0.00,,,0.00,,2013-03-03 21:52:00,
2013-03-03 13:01:00,16.0,10.0,30.25,West,263,0.0,1.0,76,0.00,,,0.00,,2013-03-03 22:01:00,
2013-03-03 13:11:00,16.0,10.0,30.25,West,263,0.0,1.0,76,0.00,,,0.00,,2013-03-03 22:11:00,
2013-03-03 13:21:00,19.0,11.0,30.26,SSW,213,0.0,2.0,71,0.00,,,0.00,,2013-03-03 22:21:00,
2013-03-03 13:52:00,19.0,11.0,30.27,SW,236,0.0,2.0,69,0.00,,,0.00,,2013-03-03 22:52:00,
2013-03-03 14:01:00,19.0,11.0,30.27,SW,236,0.0,2.0,69,0.00,,,0.00,,2013-03-03 23:01:00,
2013-03-03 14:11:00,19.0,11.0,30.27,SW,236,0.0,2.0,69,0.00,,,0.00,,2013-03-03 23:11:00,
2013-03-03 14:21:00,22.0,13.0,30.27,SW,236,0.0,2.0,67,0.00,,,0.00,,2013-03-03 23:21:00,
2013-03-03 14:52:00,22.0,12.0,30.26,WSW,256,0.0,2.0,65,0.00,,,0.00,,2013-03-03 23:52:00,
2013-03-03 15:21:00,21.0,11.0,30.27,WSW,256,1.0,1.0,66,0.00,,,0.00,,2013-03-04 00:21:00,
2013-03-03 15:32:00,21.0,11.0,30.27,WSW,256,1.0,1.0,66,0.00,,,0.00,,2013-03-04 00:32:00,
2013-03-03 15:42:00,21.0,11.0,30.27,WSW,256,1.0,1.0,66,0.00,,,0.00,,2013-03-04 00:42:00,
2013-03-03 15:51:00,22.0,12.0,30.27,WSW,257,0.0,3.0,65,0.00,,,0.00,,2013-03-04 00:51:00,
2013-03-03 16:01:00,22.0,12.0,30.27,WSW,257,0.0,3.0,65,0.00,,,0.00,,2013-03-04 01:01:00,
2013-03-03 16:11:00,22.0,12.0,30.27,WSW,257,0.0,3.0,65,0.00,,,0.00,,2013-03-04 01:11:00,
2013-03-03 16:21:00,23.0,13.0,30.27,WSW,257,0.0,1.0,66,0.00,,,0.00,,2013-03-04 01:21:00,
2013-03-03 16:31:00,23.0,13.0,30.27,WSW,257,0.0,1.0,66,0.00,,,0.00,,2013-03-04 01:31:00,
2013-03-03 16:42:00,23.0,13.0,30.27,WSW,257,0.0,1.0,66,0.00,,,0.00,,2013-03-04 01:42:00,
2013-03-03 16:51:00,24.0,14.0,30.28,WSW,257,0.0,0.0,66,0.00,,,0.00,,2013-03-04 01:51:00,
2013-03-03 17:01:00,24.0,14.0,30.28,WSW,257,0.0,0.0,66,0.00,,,0.00,,2013-03-04 02:01:00,
2013-03-03 17:11:00,24.0,14.0,30.28,WSW,257,0.0,0.0,66,0.00,,,0.00,,2013-03-04 02:11:00,
2013-03-03 17:22:00,23.0,14.0,30.28,WSW,257,0.0,1.0,67,0.00,,,0.00,,2013-03-04 02:22:00,
2013-03-03 17:31:00,23.0,14.0,30.28,WSW,257,0.0,1.0,67,0.00,,,0.00,,2013-03-04 02:31:00,
2013-03-03 17:41:00,23.0,14.0,30.28,WSW,257,0.0,1.0,67,0.00,,,0.00,,2013-03-04 02:41:00,
2013-03-03 17:52:00,21.0,12.0,30.28,WSW,257,0.0,0.0,69,0.00,,,0.00,,2013-03-04 02:52:00,
2013-03-03 18:01:00,21.0,12.0,30.28,WSW,257,0.0,0.0,69,0.00,,,0.00,,2013-03-04 03:01:00,
2013-03-03 18:11:00,21.0,12.0,30.28,WSW,257,0.0,0.0,69,0.00,,,0.00,,2013-03-04 03:11:00,
2013-03-03 18:21:00,18.0,10.0,30.28,WSW,257,0.0,0.0,70,0.00,,,0.00,,2013-03-04 03:21:00,
2013-03-03 18:32:00,18.0,10.0,30.28,WSW,257,0.0,0.0,70,0.00,,,0.00,,2013-03-04 03:32:00,
2013-03-03 18:41:00,16.0,9.0,30.29,WSW,257,0.0,0.0,73,0.00,,,0.00,,2013-03-04 03:41:00,
2013-03-03 18:52:00,16.0,9.0,30.29,WSW,257,0.0,0.0,73,0.00,,,0.00,,2013-03-04 03:52:00,
2013-03-03 19:01:00,16.0,9.0,30.29,WSW,257,0.0,0.0,73,0.00,,,0.00,,2013-03-04 04:01:00,
2013-03-03 19:11:00,16.0,9.0,30.29,WSW,257,0.0,0.0,73,0.00,,,0.00,,2013-03-04 04:11:00,
2013-03-03 19:22:00,15.0,8.0,30.31,WNW,298,0.0,1.0,73,0.00,,,0.00,,2013-03-04 04:22:00,
2013-03-03 19:32:00,15.0,8.0,30.31,WNW,298,0.0,1.0,73,0.00,,,0.00,,2013-03-04 04:32:00,
2013-03-03 19:42:00,15.0,8.0,30.31,WNW,298,0.0,1.0,73,0.00,,,0.00,,2013-03-04 04:42:00,
2013-03-03 19:51:00,13.0,5.0,30.32,WNW,298,0.0,0.0,71,0.00,,,0.00,,2013-03-04 04:51:00,
2013-03-03 20:01:00,13.0,5.0,30.32,WNW,298,0.0,0.0,71,0.00,,,0.00,,2013-03-04 05:01:00,
2013-03-03 20:11:00,13.0,5.0,30.32,WNW,298,0.0,0.0,71,0.00,,,0.00,,2013-03-04 05:11:00,
2013-03-03 20:22:00,10.0,3.0,30.32,WNW,298,0.0,0.0,73,0.00,,,0.00,,2013-03-04 05:22:00,
2013-03-03 20:31:00,10.0,3.0,30.32,WNW,298,0.0,0.0,73,0.00,,,0.00,,2013-03-04 05:31:00,
2013-03-03 20:42:00,10.0,3.0,30.32,WNW,298,0.0,0.0,73,0.00,,,0.00,,2013-03-04 05:42:00,
2013-03-03 20:52:00,9.0,3.0,30.33,WNW,298,0.0,0.0,77,0.00,,,0.00,,2013-03-04 05:52:00,
2013-03-03 21:01:00,9.0,3.0,30.33,WNW,298,0.0,0.0,77,0.00,,,0.00,,2013-03-04 06:01:00,
2013-03-03 21:11:00,9.0,3.0,30.33,WNW,298,0.0,0.0,77,0.00,,,0.00,,2013-03-04 06:11:00,
2013-03-03 21:21:00,8.0,3.0,30.33,WNW,298,0.0,0.0,80,0.00,,,0.00,,2013-03-04 06:21:00,
2013-03-03 21:31:00,8.0,3.0,30.33,WNW,298,0.0,0.0,80,0.00,,,0.00,,2013-03-04 06:31:00,
2013-03-03 21:42:00,8.0,3.0,30.33,WNW,298,0.0,0.0,80,0.00,,,0.00,,2013-03-04 06:42:00,
2013-03-03 21:51:00,8.0,2.0,30.33,WNW,298,0.0,0.0,76,0.00,,,0.00,,2013-03-04 06:51:00,
2013-03-03 22:01:00,8.0,2.0,30.33,WNW,298,0.0,0.0,76,0.00,,,0.00,,2013-03-04 07:01:00,
2013-03-03 22:11:00,8.0,2.0,30.33,WNW,298,0.0,0.0,76,0.00,,,0.00,,2013-03-04 07:11:00,
2013-03-03 22:21:00,8.0,3.0,30.34,WNW,298,0.0,0.0,79,0.00,,,0.00,,2013-03-04 07:21:00,
2013-03-03 22:32:00,8.0,3.0,30.34,WNW,298,0.0,0.0,79,0.00,,,0.00,,2013-03-04 07:32:00,
2013-03-03 22:41:00,8.0,3.0,30.34,WNW,298,0.0,0.0,79,0.00,,,0.00,,2013-03-04 07:41:00,
2013-03-03 22:51:00,6.0,1.0,30.35,WNW,298,0.0,0.0,80,0.00,,,0.00,,2013-03-04 07:51:00,
2013-03-03 23:01:00,6.0,1.0,30.35,WNW,298,0.0,0.0,80,0.00,,,0.00,,2013-03-04 08:01:00,
2013-03-03 23:11:00,6.0,1.0,30.35,WNW,298,0.0,0.0,80,0.00,,,0.00,,2013-03-04 08:11:00,
2013-03-03 23:21:00,5.0,0.0,30.35,WNW,298,0.0,0.0,80,0.00,,,0.00,,2013-03-04 08:21:00,
2013-03-03 23:31:00,5.0,0.0,30.35,WNW,298,0.0,0.0,80,0.00,,,0.00,,2013-03-04 08:31:00,
2013-03-03 23:41:00,5.0,0.0,30.35,WNW,298,0.0,0.0,80,0.00,,,0.00,,2013-03-04 08:41:00,
2013-03-03 23:52:00,5.0,0.0,30.36,WNW,298,0.0,0.0,79,0.00,,,0.00,,2013-03-04 08:52:00,